| time (UTC) | temp C | wind direction | speed KPH | gust KPH | rain 1hr cm | rain 24hr cm | rain mn cm | humidity % | barometer mb |
| 20260506073042 | 6 | 88 | 6.4 | 12.9 | 0.00 | 0.00 | 0.00 | 64 | 1016.7 |
| 20260506072534 | 6 | 75 | 4.8 | 12.9 | 0.00 | 0.00 | 0.00 | 64 | 1016.7 |
| 20260506072031 | 6 | 82 | 4.8 | 12.9 | 0.00 | 0.00 | 0.00 | 65 | 1016.7 |
| 20260506071538 | 6 | 65 | 6.4 | 12.9 | 0.00 | 0.00 | 0.00 | 65 | 1016.7 |
| 20260506071033 | 6 | 114 | 6.4 | 12.9 | 0.00 | 0.00 | 0.00 | 66 | 1016.7 |
| 20260506070531 | 6 | 127 | 4.8 | 9.7 | 0.00 | 0.00 | 0.00 | 67 | 1016.9 |
| 20260506062031 | 6 | 68 | 1.6 | 8.0 | 0.00 | 0.00 | 0.00 | 69 | 1016.7 |
| 20260506061545 | 6 | 113 | 1.6 | 8.0 | 0.00 | 0.00 | 0.00 | 70 | 1016.7 |
| 20260506061031 | 6 | 79 | 1.6 | 6.4 | 0.00 | 0.00 | 0.00 | 70 | 1016.8 |
| 20260506060532 | 6 | 80 | 1.6 | 6.4 | 0.00 | 0.00 | 0.00 | 70 | 1016.8 |
| 20260506051031 | 5 | 75 | 1.6 | 4.8 | 0.00 | 0.00 | 0.00 | 69 | 1016.8 |
| 20260506050531 | 5 | 105 | 1.6 | 6.4 | 0.00 | 0.00 | 0.00 | 69 | 1016.9 |
| 20260506045030 | 5 | 76 | 1.6 | 4.8 | 0.00 | 0.00 | 0.00 | 69 | 1016.8 |
| 20260506044543 | 5 | 76 | 1.6 | 4.8 | 0.00 | 0.00 | 0.00 | 69 | 1016.8 |
| 20260506044030 | 5 | 58 | 1.6 | 4.8 | 0.00 | 0.00 | 0.00 | 69 | 1017.0 |
| 20260506043534 | 5 | 72 | 1.6 | 3.2 | 0.00 | 0.00 | 0.00 | 69 | 1016.8 |
| 20260506043043 | 5 | 76 | 0.0 | 3.2 | 0.00 | 0.00 | 0.00 | 69 | 1016.8 |
| 20260506042530 | 5 | 83 | 0.0 | 3.2 | 0.00 | 0.00 | 0.00 | 68 | 1017.0 |
| 20260506042030 | 5 | 85 | 1.6 | 4.8 | 0.00 | 0.00 | 0.00 | 68 | 1017.0 |
| 20260506041537 | 6 | 89 | 1.6 | 4.8 | 0.00 | 0.00 | 0.00 | 68 | 1017.0 |
| 20260506041030 | 6 | 65 | 1.6 | 6.4 | 0.00 | 0.00 | 0.00 | 68 | 1016.8 |
| 20260506040535 | 6 | 84 | 1.6 | 6.4 | 0.00 | 0.00 | 0.00 | 67 | 1016.8 |
| 20260506040045 | 6 | 55 | 3.2 | 6.4 | 0.00 | 0.00 | 0.00 | 67 | 1017.0 |
| 20260506035530 | 6 | 74 | 0.0 | 6.4 | 0.00 | 0.00 | 0.00 | 67 | 1016.8 |
| 20260506035030 | 6 | 72 | 3.2 | 8.0 | 0.00 | 0.00 | 0.00 | 67 | 1016.9 |
| 20260506034558 | 6 | 82 | 3.2 | 8.0 | 0.00 | 0.00 | 0.00 | 67 | 1017.0 |
| 20260506034030 | 6 | 89 | 3.2 | 8.0 | 0.00 | 0.00 | 0.00 | 67 | 1016.9 |
| 20260506033531 | 6 | 71 | 3.2 | 8.0 | 0.00 | 0.00 | 0.00 | 66 | 1016.9 |
| 20260506033055 | 6 | 108 | 3.2 | 6.4 | 0.00 | 0.00 | 0.00 | 66 | 1016.9 |
| 20260506032531 | 6 | 122 | 1.6 | 6.4 | 0.00 | 0.00 | 0.00 | 66 | 1017.0 |
| 20260506032031 | 6 | 82 | 3.2 | 6.4 | 0.00 | 0.00 | 0.00 | 66 | 1017.0 |
| 20260506031533 | 6 | 70 | 1.6 | 6.4 | 0.00 | 0.00 | 0.00 | 66 | 1016.9 |
| 20260506031031 | 6 | 98 | 3.2 | 6.4 | 0.00 | 0.00 | 0.00 | 66 | 1016.9 |
| 20260506030530 | 6 | 92 | 3.2 | 6.4 | 0.00 | 0.00 | 0.00 | 66 | 1017.0 |
| 20260506030044 | 6 | 54 | 1.6 | 6.4 | 0.00 | 0.00 | 0.00 | 66 | 1017.0 |
| 20260506025530 | 6 | 71 | 3.2 | 6.4 | 0.00 | 0.00 | 0.00 | 66 | 1017.1 |
| 20260506025030 | 6 | 94 | 3.2 | 6.4 | 0.00 | 0.00 | 0.00 | 66 | 1017.1 |
| 20260506024555 | 6 | 58 | 1.6 | 6.4 | 0.00 | 0.00 | 0.00 | 66 | 1017.1 |
| 20260506024031 | 6 | 60 | 3.2 | 6.4 | 0.00 | 0.00 | 0.00 | 66 | 1017.0 |
| 20260506023531 | 6 | 56 | 1.6 | 4.8 | 0.00 | 0.00 | 0.00 | 66 | 1017.0 |
| 20260506023040 | 6 | 77 | 1.6 | 6.4 | 0.00 | 0.00 | 0.00 | 66 | 1017.1 |
| 20260506022530 | 6 | 76 | 1.6 | 6.4 | 0.00 | 0.00 | 0.00 | 66 | 1017.1 |
| 20260506022031 | 6 | 77 | 3.2 | 8.0 | 0.00 | 0.00 | 0.00 | 65 | 1017.1 |
| 20260506021538 | 6 | 89 | 1.6 | 11.3 | 0.00 | 0.00 | 0.00 | 65 | 1017.0 |
| 20260506021031 | 6 | 71 | 3.2 | 11.3 | 0.00 | 0.00 | 0.00 | 65 | 1017.1 |
| 20260506020530 | 6 | 94 | 4.8 | 11.3 | 0.00 | 0.00 | 0.00 | 65 | 1017.0 |
| 20260506020035 | 6 | 86 | 3.2 | 8.0 | 0.00 | 0.00 | 0.00 | 65 | 1017.1 |
| 20260506015531 | 6 | 63 | 3.2 | 9.7 | 0.00 | 0.00 | 0.00 | 64 | 1017.1 |
| 20260506015031 | 6 | 77 | 3.2 | 11.3 | 0.00 | 0.00 | 0.00 | 65 | 1017.0 |
| 20260506014536 | 6 | 66 | 4.8 | 11.3 | 0.00 | 0.00 | 0.00 | 64 | 1017.0 |
| 20260506014030 | 6 | 102 | 4.8 | 6.4 | 0.00 | 0.00 | 0.00 | 64 | 1017.2 |
| 20260506013530 | 6 | 59 | 1.6 | 8.0 | 0.00 | 0.00 | 0.00 | 64 | 1017.3 |
| 20260506013059 | 6 | 96 | 3.2 | 8.0 | 0.00 | 0.00 | 0.00 | 64 | 1017.2 |
| 20260506012531 | 6 | 86 | 3.2 | 8.0 | 0.00 | 0.00 | 0.00 | 64 | 1017.3 |
| 20260506012031 | 6 | 77 | 1.6 | 8.0 | 0.00 | 0.00 | 0.00 | 64 | 1017.4 |
| 20260506011542 | 6 | 85 | 3.2 | 9.7 | 0.00 | 0.00 | 0.00 | 63 | 1017.4 |
| 20260506011030 | 6 | 72 | 3.2 | 9.7 | 0.00 | 0.00 | 0.00 | 63 | 1017.5 |
| 20260506010531 | 6 | 72 | 3.2 | 8.0 | 0.00 | 0.00 | 0.00 | 63 | 1017.5 |
| 20260506010037 | 6 | 82 | 3.2 | 8.0 | 0.00 | 0.00 | 0.00 | 63 | 1017.5 |
| 20260506005530 | 6 | 80 | 4.8 | 9.7 | 0.00 | 0.00 | 0.00 | 63 | 1017.5 |
| 20260506005030 | 6 | 68 | 4.8 | 9.7 | 0.00 | 0.00 | 0.00 | 63 | 1017.6 |
| 20260506004536 | 6 | 160 | 3.2 | 9.7 | 0.00 | 0.00 | 0.00 | 63 | 1017.6 |
| 20260506004030 | 7 | 72 | 4.8 | 11.3 | 0.00 | 0.00 | 0.00 | 63 | 1017.6 |
| 20260506003530 | 7 | 78 | 4.8 | 11.3 | 0.00 | 0.00 | 0.00 | 62 | 1017.6 |
| 20260506003042 | 7 | 68 | 6.4 | 12.9 | 0.00 | 0.00 | 0.00 | 62 | 1017.7 |
| 20260506002530 | 7 | 78 | 4.8 | 14.5 | 0.00 | 0.00 | 0.00 | 62 | 1017.7 |
| 20260506002030 | 7 | 95 | 6.4 | 14.5 | 0.00 | 0.00 | 0.00 | 63 | 1017.7 |
| 20260506001545 | 7 | 74 | 9.7 | 14.5 | 0.00 | 0.00 | 0.00 | 62 | 1017.5 |
| 20260506001030 | 7 | 71 | 4.8 | 9.7 | 0.00 | 0.00 | 0.00 | 63 | 1017.6 |
| 20260506000530 | 7 | 59 | 4.8 | 9.7 | 0.00 | 0.00 | 0.00 | 63 | 1017.6 |
| 20260506000037 | 7 | 72 | 3.2 | 11.3 | 0.00 | 0.00 | 0.00 | 63 | 1017.6 |
| 20260505235531 | 7 | 81 | 6.4 | 11.3 | 0.00 | 0.00 | 0.00 | 63 | 1017.5 |
| 20260505235031 | 7 | 70 | 4.8 | 9.7 | 0.00 | 0.00 | 0.00 | 63 | 1017.5 |
| 20260505234537 | 7 | 75 | 4.8 | 11.3 | 0.00 | 0.00 | 0.00 | 63 | 1017.5 |
| 20260505234030 | 7 | 49 | 3.2 | 11.3 | 0.00 | 0.00 | 0.00 | 63 | 1017.5 |
| 20260505233531 | 7 | 69 | 4.8 | 9.7 | 0.00 | 0.00 | 0.00 | 63 | 1017.6 |
| 20260505233043 | 7 | 84 | 3.2 | 9.7 | 0.00 | 0.00 | 0.00 | 63 | 1017.5 |
| 20260505232530 | 7 | 59 | 4.8 | 12.9 | 0.00 | 0.00 | 0.00 | 63 | 1017.6 |
| 20260505232030 | 7 | 108 | 3.2 | 12.9 | 0.00 | 0.00 | 0.00 | 64 | 1017.7 |
| 20260505231543 | 7 | 83 | 6.4 | 12.9 | 0.00 | 0.00 | 0.00 | 63 | 1017.7 |
| 20260505231033 | 7 | 56 | 4.8 | 16.1 | 0.00 | 0.00 | 0.00 | 63 | 1017.7 |
| 20260505230530 | 7 | 68 | 6.4 | 16.1 | 0.00 | 0.00 | 0.00 | 63 | 1017.7 |
| 20260505230051 | 7 | 68 | 8.0 | 16.1 | 0.00 | 0.00 | 0.00 | 63 | 1017.8 |
| 20260505225530 | 7 | 117 | 6.4 | 14.5 | 0.00 | 0.00 | 0.00 | 63 | 1017.9 |
| 20260505225030 | 7 | 63 | 6.4 | 12.9 | 0.00 | 0.00 | 0.00 | 63 | 1017.9 |
| 20260505224536 | 7 | 70 | 4.8 | 12.9 | 0.00 | 0.00 | 0.00 | 63 | 1017.8 |
| 20260505224030 | 7 | 78 | 4.8 | 14.5 | 0.00 | 0.00 | 0.00 | 63 | 1017.9 |
| 20260505223530 | 7 | 69 | 6.4 | 14.5 | 0.00 | 0.00 | 0.00 | 64 | 1017.8 |
| 20260505223054 | 7 | 96 | 3.2 | 8.0 | 0.00 | 0.00 | 0.00 | 64 | 1017.9 |
| 20260505222534 | 7 | 65 | 3.2 | 8.0 | 0.00 | 0.00 | 0.00 | 64 | 1018.0 |
| 20260505222032 | 7 | 75 | 3.2 | 14.5 | 0.00 | 0.00 | 0.00 | 63 | 1017.9 |
| 20260505221543 | 7 | 58 | 3.2 | 14.5 | 0.00 | 0.00 | 0.00 | 63 | 1017.9 |
| 20260505221031 | 7 | 108 | 4.8 | 12.9 | 0.00 | 0.00 | 0.00 | 63 | 1017.7 |
| 20260505220530 | 7 | 60 | 4.8 | 11.3 | 0.00 | 0.00 | 0.00 | 63 | 1017.8 |
| 20260505220044 | 7 | 74 | 6.4 | 14.5 | 0.00 | 0.00 | 0.00 | 63 | 1017.9 |
| 20260505215530 | 7 | 63 | 6.4 | 14.5 | 0.00 | 0.00 | 0.00 | 63 | 1018.0 |
| 20260505215030 | 7 | 94 | 6.4 | 14.5 | 0.00 | 0.00 | 0.00 | 63 | 1018.1 |
| 20260505214540 | 7 | 65 | 4.8 | 11.3 | 0.00 | 0.00 | 0.00 | 62 | 1017.8 |
| 20260505214030 | 7 | 65 | 4.8 | 11.3 | 0.00 | 0.00 | 0.00 | 63 | 1017.9 |
| 20260505213530 | 7 | 92 | 4.8 | 12.9 | 0.00 | 0.00 | 0.00 | 63 | 1017.7 |
| 20260505213050 | 7 | 106 | 4.8 | 12.9 | 0.00 | 0.00 | 0.00 | 62 | 1017.8 |
| 20260505212533 | 7 | 78 | 4.8 | 12.9 | 0.00 | 0.00 | 0.00 | 62 | 1017.7 |
| 20260505212033 | 7 | 80 | 4.8 | 20.9 | 0.00 | 0.00 | 0.00 | 62 | 1017.7 |
| 20260505211535 | 7 | 75 | 6.4 | 20.9 | 0.00 | 0.00 | 0.00 | 62 | 1017.6 |
| 20260505211031 | 7 | 76 | 6.4 | 14.5 | 0.00 | 0.00 | 0.00 | 62 | 1017.6 |
| 20260505210536 | 7 | 60 | 4.8 | 17.7 | 0.00 | 0.00 | 0.00 | 61 | 1017.6 |
| 20260505210042 | 7 | 93 | 6.4 | 17.7 | 0.00 | 0.00 | 0.00 | 61 | 1017.6 |
| 20260505205531 | 7 | 84 | 8.0 | 17.7 | 0.00 | 0.00 | 0.00 | 61 | 1017.5 |
| 20260505205032 | 7 | 61 | 8.0 | 17.7 | 0.00 | 0.00 | 0.00 | 61 | 1017.5 |
| 20260505204546 | 7 | 72 | 8.0 | 17.7 | 0.00 | 0.00 | 0.00 | 61 | 1017.4 |
| 20260505204033 | 7 | 64 | 6.4 | 17.7 | 0.00 | 0.00 | 0.00 | 61 | 1017.4 |
| 20260505203531 | 7 | 119 | 9.7 | 16.1 | 0.00 | 0.00 | 0.00 | 61 | 1017.2 |
| 20260505203046 | 7 | 72 | 8.0 | 14.5 | 0.00 | 0.00 | 0.00 | 62 | 1017.3 |
| 20260505202531 | 7 | 65 | 8.0 | 17.7 | 0.00 | 0.00 | 0.00 | 62 | 1017.3 |
| 20260505202031 | 8 | 77 | 6.4 | 20.9 | 0.00 | 0.00 | 0.00 | 62 | 1017.2 |
| 20260505201546 | 8 | 85 | 9.7 | 20.9 | 0.00 | 0.00 | 0.00 | 62 | 1017.2 |
| 20260505201032 | 8 | 80 | 9.7 | 20.9 | 0.00 | 0.00 | 0.00 | 62 | 1017.2 |
| 20260505200532 | 8 | 65 | 12.9 | 20.9 | 0.00 | 0.00 | 0.00 | 63 | 1017.2 |
| 20260505200045 | 8 | 112 | 9.7 | 19.3 | 0.00 | 0.00 | 0.00 | 63 | 1017.1 |
| 20260505195531 | 8 | 75 | 8.0 | 17.7 | 0.00 | 0.00 | 0.00 | 63 | 1017.1 |
| 20260505195033 | 8 | 120 | 9.7 | 17.7 | 0.00 | 0.00 | 0.00 | 64 | 1017.0 |
| 20260505194550 | 8 | 67 | 6.4 | 20.9 | 0.00 | 0.00 | 0.00 | 64 | 1017.1 |
| 20260505194034 | 8 | 60 | 8.0 | 20.9 | 0.00 | 0.00 | 0.00 | 63 | 1017.0 |
| 20260505193533 | 8 | 63 | 12.9 | 20.9 | 0.00 | 0.00 | 0.00 | 63 | 1017.0 |
| 20260505193042 | 8 | 81 | 8.0 | 17.7 | 0.00 | 0.00 | 0.00 | 63 | 1016.9 |
| 20260505192534 | 8 | 85 | 8.0 | 17.7 | 0.00 | 0.00 | 0.00 | 63 | 1016.9 |
| 20260505192032 | 8 | 81 | 8.0 | 16.1 | 0.00 | 0.00 | 0.00 | 62 | 1016.9 |
| 20260505191541 | 8 | 73 | 9.7 | 20.9 | 0.00 | 0.00 | 0.00 | 62 | 1016.8 |
| 20260505191033 | 8 | 110 | 8.0 | 20.9 | 0.00 | 0.00 | 0.00 | 62 | 1016.7 |
| 20260505190535 | 8 | 72 | 8.0 | 12.9 | 0.00 | 0.00 | 0.00 | 62 | 1016.8 |
| 20260505190048 | 9 | 92 | 4.8 | 16.1 | 0.00 | 0.00 | 0.00 | 63 | 1016.7 |
| 20260505185533 | 9 | 60 | 4.8 | 16.1 | 0.00 | 0.00 | 0.00 | 63 | 1016.7 |
| 20260505185032 | 9 | 70 | 9.7 | 14.5 | 0.00 | 0.00 | 0.00 | 62 | 1016.7 |
| 20260505184550 | 9 | 94 | 8.0 | 14.5 | 0.00 | 0.00 | 0.00 | 62 | 1016.6 |
| 20260505184034 | 9 | 80 | 8.0 | 19.3 | 0.00 | 0.00 | 0.00 | 62 | 1016.5 |
| 20260505183532 | 9 | 56 | 11.3 | 19.3 | 0.00 | 0.00 | 0.00 | 61 | 1016.5 |
| 20260505183049 | 9 | 72 | 9.7 | 24.1 | 0.00 | 0.00 | 0.00 | 61 | 1016.6 |
| 20260505182531 | 10 | 70 | 12.9 | 24.1 | 0.00 | 0.00 | 0.00 | 61 | 1016.6 |
| 20260505182034 | 10 | 97 | 9.7 | 22.5 | 0.00 | 0.00 | 0.00 | 62 | 1016.5 |
| 20260505181541 | 10 | 81 | 12.9 | 25.7 | 0.00 | 0.00 | 0.00 | 61 | 1016.5 |
| 20260505181033 | 10 | 75 | 9.7 | 25.7 | 0.00 | 0.00 | 0.00 | 61 | 1016.4 |
| 20260505180533 | 10 | 60 | 11.3 | 25.7 | 0.00 | 0.00 | 0.00 | 61 | 1016.5 |
| 20260505180039 | 10 | 89 | 9.7 | 22.5 | 0.00 | 0.00 | 0.00 | 61 | 1016.4 |
| 20260505175532 | 10 | 96 | 9.7 | 22.5 | 0.00 | 0.00 | 0.00 | 62 | 1016.4 |
| 20260505175032 | 9 | 50 | 11.3 | 22.5 | 0.00 | 0.00 | 0.00 | 62 | 1016.3 |
| 20260505174537 | 10 | 92 | 11.3 | 22.5 | 0.00 | 0.00 | 0.00 | 62 | 1016.4 |
| 20260505174032 | 10 | 46 | 12.9 | 27.4 | 0.00 | 0.00 | 0.00 | 61 | 1016.4 |
| 20260505173534 | 10 | 131 | 9.7 | 27.4 | 0.00 | 0.00 | 0.00 | 62 | 1016.5 |
| 20260505173043 | 10 | 28 | 8.0 | 19.3 | 0.00 | 0.00 | 0.00 | 62 | 1016.3 |
| 20260505172531 | 10 | 68 | 9.7 | 17.7 | 0.00 | 0.00 | 0.00 | 62 | 1016.4 |
| 20260505172032 | 10 | 84 | 8.0 | 17.7 | 0.00 | 0.00 | 0.00 | 62 | 1016.4 |
| 20260505171543 | 10 | 74 | 9.7 | 27.4 | 0.00 | 0.00 | 0.00 | 62 | 1016.4 |
| 20260505171034 | 10 | 68 | 14.5 | 27.4 | 0.00 | 0.00 | 0.00 | 63 | 1016.3 |
| 20260505170532 | 10 | 85 | 11.3 | 24.1 | 0.00 | 0.00 | 0.00 | 63 | 1016.3 |
| 20260505170042 | 10 | 79 | 9.7 | 20.9 | 0.00 | 0.00 | 0.00 | 63 | 1016.3 |
| 20260505165532 | 10 | 70 | 9.7 | 20.9 | 0.00 | 0.00 | 0.00 | 62 | 1016.2 |
| 20260505165032 | 11 | 65 | 11.3 | 20.9 | 0.00 | 0.00 | 0.00 | 61 | 1016.2 |
| 20260505164556 | 11 | 88 | 9.7 | 20.9 | 0.00 | 0.00 | 0.00 | 60 | 1016.2 |
| 20260505164032 | 11 | 94 | 11.3 | 20.9 | 0.00 | 0.00 | 0.00 | 60 | 1016.1 |
| 20260505163532 | 11 | 90 | 12.9 | 20.9 | 0.00 | 0.00 | 0.00 | 60 | 1016.1 |
| 20260505163038 | 11 | 46 | 11.3 | 19.3 | 0.00 | 0.00 | 0.00 | 61 | 1016.0 |
| 20260505162531 | 10 | 123 | 8.0 | 19.3 | 0.00 | 0.00 | 0.00 | 63 | 1016.1 |
| 20260505162032 | 10 | 94 | 9.7 | 20.9 | 0.00 | 0.00 | 0.00 | 62 | 1016.1 |
| 20260505161537 | 10 | 64 | 9.7 | 20.9 | 0.00 | 0.00 | 0.00 | 62 | 1016.0 |
| 20260505161033 | 11 | 84 | 6.4 | 19.3 | 0.00 | 0.00 | 0.00 | 63 | 1016.2 |
| 20260505160533 | 10 | 79 | 11.3 | 20.9 | 0.00 | 0.00 | 0.00 | 62 | 1016.2 |
| 20260505153108 | 11 | 83 | 11.3 | 24.1 | 0.00 | 0.00 | 0.00 | 61 | 1015.9 |
| 20260505152531 | 11 | 77 | 9.7 | 17.7 | 0.00 | 0.00 | 0.00 | 61 | 1016.0 |
| 20260505152032 | 11 | 81 | 6.4 | 20.9 | 0.00 | 0.00 | 0.00 | 60 | 1016.1 |
| 20260505151545 | 11 | 75 | 12.9 | 20.9 | 0.00 | 0.00 | 0.00 | 60 | 1016.1 |
| 20260505151032 | 11 | 122 | 11.3 | 22.5 | 0.00 | 0.00 | 0.00 | 60 | 1016.0 |
| 20260505150532 | 11 | 66 | 12.9 | 22.5 | 0.00 | 0.00 | 0.00 | 60 | 1016.0 |
| 20260505140536 | 11 | 74 | 11.3 | 24.1 | 0.00 | 0.00 | 0.00 | 60 | 1015.7 |
| 20260505125031 | 12 | 82 | 3.2 | 11.3 | 0.00 | 0.00 | 0.00 | 44 | 1015.3 |
| 20260505124540 | 12 | 146 | 1.6 | 8.0 | 0.00 | 0.00 | 0.00 | 45 | 1015.3 |
| 20260505124031 | 12 | 264 | 1.6 | 17.7 | 0.00 | 0.00 | 0.00 | 45 | 1015.3 |
| 20260505123535 | 12 | 96 | 8.0 | 17.7 | 0.00 | 0.00 | 0.00 | 45 | 1015.5 |
| 20260505123045 | 12 | 75 | 4.8 | 14.5 | 0.00 | 0.00 | 0.00 | 47 | 1015.3 |
| 20260505122531 | 12 | 115 | 8.0 | 14.5 | 0.00 | 0.00 | 0.00 | 47 | 1015.3 |
| 20260505122034 | 12 | 105 | 6.4 | 14.5 | 0.00 | 0.00 | 0.00 | 45 | 1015.5 |
| 20260505121537 | 12 | 296 | 0.0 | 14.5 | 0.00 | 0.00 | 0.00 | 46 | 1015.4 |
| 20260505121032 | 12 | 336 | 3.2 | 19.3 | 0.00 | 0.00 | 0.00 | 46 | 1015.6 |
| 20260505120531 | 12 | 40 | 11.3 | 19.3 | 0.00 | 0.00 | 0.00 | 46 | 1015.7 |
| 20260505120041 | 12 | 91 | 8.0 | 16.1 | 0.00 | 0.00 | 0.00 | 47 | 1015.6 |
| 20260505115531 | 12 | 108 | 6.4 | 16.1 | 0.00 | 0.00 | 0.00 | 48 | 1015.5 |
| 20260505115035 | 12 | 100 | 8.0 | 14.5 | 0.00 | 0.00 | 0.00 | 49 | 1015.6 |
| 20260505114545 | 12 | 96 | 8.0 | 12.9 | 0.00 | 0.00 | 0.00 | 50 | 1015.5 |
| 20260505114030 | 12 | 79 | 8.0 | 12.9 | 0.00 | 0.00 | 0.00 | 50 | 1015.6 |
| 20260505113531 | 12 | 108 | 4.8 | 12.9 | 0.00 | 0.00 | 0.00 | 48 | 1015.6 |
| 20260505113041 | 12 | 93 | 4.8 | 11.3 | 0.00 | 0.00 | 0.00 | 48 | 1015.5 |
| 20260505112531 | 12 | 69 | 3.2 | 8.0 | 0.00 | 0.00 | 0.00 | 50 | 1015.7 |
| 20260505112031 | 12 | 340 | 1.6 | 8.0 | 0.00 | 0.00 | 0.00 | 50 | 1015.6 |
| 20260505111553 | 12 | 67 | 1.6 | 9.7 | 0.00 | 0.00 | 0.00 | 51 | 1015.6 |
| 20260505111032 | 11 | 19 | 0.0 | 9.7 | 0.00 | 0.00 | 0.00 | 51 | 1015.7 |
| 20260505110532 | 11 | 75 | 3.2 | 9.7 | 0.00 | 0.00 | 0.00 | 51 | 1015.7 |
| 20260505102031 | 10 | 353 | 1.6 | 8.0 | 0.00 | 0.00 | 0.00 | 59 | 1015.8 |
| 20260505101538 | 10 | 294 | 1.6 | 8.0 | 0.00 | 0.00 | 0.00 | 59 | 1015.9 |
| 20260505101032 | 10 | 221 | 3.2 | 8.0 | 0.00 | 0.00 | 0.00 | 60 | 1015.9 |
| 20260505100535 | 10 | 351 | 0.0 | 9.7 | 0.00 | 0.00 | 0.00 | 61 | 1015.8 |
| 20260505100042 | 10 | 356 | 3.2 | 9.7 | 0.00 | 0.00 | 0.00 | 60 | 1015.7 |
| 20260505095533 | 10 | 37 | 1.6 | 8.0 | 0.00 | 0.00 | 0.00 | 61 | 1015.7 |
| 20260505095031 | 10 | 354 | 3.2 | 6.4 | 0.00 | 0.00 | 0.00 | 62 | 1015.7 |
| 20260505094537 | 10 | 36 | 1.6 | 6.4 | 0.00 | 0.00 | 0.00 | 62 | 1015.7 |
| 20260505094031 | 10 | 246 | 1.6 | 11.3 | 0.00 | 0.00 | 0.00 | 64 | 1015.6 |
| 20260505093531 | 10 | 302 | 4.8 | 11.3 | 0.00 | 0.00 | 0.00 | 61 | 1015.6 |
| 20260505093037 | 10 | 347 | 1.6 | 9.7 | 0.00 | 0.00 | 0.00 | 62 | 1015.6 |
| 20260505092532 | 10 | 324 | 3.2 | 12.9 | 0.00 | 0.00 | 0.00 | 62 | 1015.6 |
| 20260505092032 | 10 | 274 | 1.6 | 12.9 | 0.00 | 0.00 | 0.00 | 61 | 1015.5 |
| 20260505091550 | 10 | 340 | 4.8 | 12.9 | 0.00 | 0.00 | 0.00 | 62 | 1015.6 |
| 20260505091032 | 10 | 71 | 3.2 | 9.7 | 0.00 | 0.00 | 0.00 | 63 | 1015.5 |
| 20260505090531 | 10 | 293 | 3.2 | 9.7 | 0.00 | 0.00 | 0.00 | 64 | 1015.5 |
| 20260505090051 | 10 | 351 | 3.2 | 9.7 | 0.00 | 0.00 | 0.00 | 65 | 1015.5 |
| 20260505085534 | 10 | 11 | 3.2 | 8.0 | 0.00 | 0.00 | 0.00 | 66 | 1015.5 |
| 20260505085031 | 10 | 328 | 1.6 | 8.0 | 0.00 | 0.00 | 0.00 | 68 | 1015.5 |
| 20260505084538 | 10 | 272 | 3.2 | 6.4 | 0.00 | 0.00 | 0.00 | 68 | 1015.3 |
| 20260505084030 | 10 | 260 | 1.6 | 9.7 | 0.00 | 0.00 | 0.00 | 69 | 1015.3 |
| 20260505083531 | 10 | 323 | 3.2 | 9.7 | 0.00 | 0.00 | 0.00 | 69 | 1015.3 |
| 20260505083048 | 10 | 347 | 4.8 | 9.7 | 0.00 | 0.00 | 0.00 | 69 | 1015.5 |
| 20260505082530 | 10 | 342 | 3.2 | 9.7 | 0.00 | 0.00 | 0.00 | 70 | 1015.3 |
| 20260505082032 | 10 | 299 | 4.8 | 9.7 | 0.00 | 0.00 | 0.00 | 70 | 1015.4 |
| 20260505081557 | 10 | 332 | 1.6 | 11.3 | 0.00 | 0.00 | 0.00 | 72 | 1015.4 |
| 20260505081032 | 9 | 339 | 3.2 | 11.3 | 0.00 | 0.00 | 0.00 | 73 | 1015.3 |
| 20260505080534 | 9 | 283 | 1.6 | 11.3 | 0.00 | 0.00 | 0.00 | 73 | 1015.3 |
| 20260505080046 | 9 | 248 | 4.8 | 11.3 | 0.00 | 0.00 | 0.00 | 73 | 1015.3 |
| 20260505075531 | 9 | 331 | 4.8 | 9.7 | 0.00 | 0.00 | 0.00 | 74 | 1015.3 |
| 20260505075031 | 9 | 293 | 3.2 | 8.0 | 0.00 | 0.00 | 0.00 | 75 | 1015.3 |
| 20260505074602 | 8 | 276 | 3.2 | 8.0 | 0.00 | 0.00 | 0.00 | 76 | 1015.0 |
| 20260505074031 | 8 | 304 | 3.2 | 8.0 | 0.00 | 0.00 | 0.00 | 76 | 1015.0 |
| 20260505073531 | 8 | 293 | 3.2 | 9.7 | 0.00 | 0.00 | 0.00 | 77 | 1015.0 |